FENGYUN 3H

Last updated on Thu Apr 09 2026 00:02:24 GMT+0000 (Coordinated Universal Time)

1 65815U 25219A 26098.56157047 .00000067 00000+0 52163-4 0 9997 2 65815 98.6722 40.7024 0000674 75.8248 284.3004 14.19940888 27506
UTC large
Height (km)
Speed (km/s)
/
Latitude / Longitude
Inclination (degrees)
Orbital Period (minutes)
Azimuth
Elevation
Range (km)
Doppler Factor

Next 0 passes for location: London (51.5072 / 0.1276)

Sorry there are no passes over London.